This is the latest recevied weather packets stored in our database for station/object KD8TSA. If no packets are shown the sender has not sent any weather packets the latest 10 day(s).
| Time | Temp. | Humidity | Pressure | Rain* | Wind** | Luminosity | Snow |
|---|---|---|---|---|---|---|---|
| 1777488027 | 13.89° C | 99% | 1008.7 hPa | 0 mm | - | 94 W/m² | - |
| 1777487724 | 13.89° C | 99% | 1008.4 hPa | 0 mm | - | 96 W/m² | - |
| 1777487421 | 13.89° C | 98% | 1008.3 hPa | 0 mm | - | 179 W/m² | - |
| 1777487114 | 14.44° C | 99% | 1008.4 hPa | 0 mm | - | 170 W/m² | - |
| 1777486809 | 14.44° C | 99% | 1008.5 hPa | 1.27 mm | - | 213 W/m² | - |
| 1777486507 | 13.89° C | 99% | 1008.3 hPa | 1.27 mm | - | 285 W/m² | - |
| 1777486204 | 14.44° C | 99% | 1008.1 hPa | 0 mm | - | 296 W/m² | - |
| 1777485902 | 14.44° C | 98% | 1008.3 hPa | 0 mm | - | 84 W/m² | - |
| 1777485597 | 14.44° C | 98% | 1008.5 hPa | 1.78 mm | - | 154 W/m² | - |
| 1777485293 | 14.44° C | 98% | 1008.3 hPa | 3.05 mm | - | 242 W/m² | - |
| 1777484989 | 14.44° C | 98% | 1008.3 hPa | 1.27 mm | - | 280 W/m² | - |
| 1777484687 | 14.44° C | 98% | 1008.3 hPa | 0 mm | - | 110 W/m² | - |
| 1777484383 | 15° C | 98% | 1008.5 hPa | 0 mm | - | 113 W/m² | - |
| 1777484078 | 15° C | 98% | 1008.5 hPa | 3.05 mm | - | 219 W/m² | - |
| 1777483775 | 15° C | 98% | 1008.4 hPa | 1.27 mm | - | 303 W/m² | - |
| 1777483472 | 15.56° C | 98% | 1008.2 hPa | 1.78 mm | - | 145 W/m² | - |
| 1777483167 | 15.56° C | 98% | 1008.2 hPa | 1.78 mm | - | 201 W/m² | - |
| 1777482864 | 15.56° C | 98% | 1008.1 hPa | 3.05 mm | - | 177 W/m² | - |
| 1777482559 | 15.56° C | 98% | 1008.2 hPa | 1.27 mm | - | 149 W/m² | - |
| 1777482257 | 15.56° C | 98% | 1008.2 hPa | 0 mm | - | 108 W/m² | - |
| 1777481954 | 15.56° C | 98% | 1008.2 hPa | 0 mm | - | 144 W/m² | - |
| 1777481652 | 16.11° C | 98% | 1008.2 hPa | 0 mm | - | 210 W/m² | - |
| 1777481349 | 15.56° C | 98% | 1008.2 hPa | 0 mm | - | 333 W/m² | - |
| 1777481045 | 15.56° C | 98% | 1008.1 hPa | 0 mm | - | 158 W/m² | - |
| 1777480742 | 15.56° C | 98% | 1008.5 hPa | 0 mm | - | 94 W/m² | - |
* Rain latest hour (hover to see other rain measurements)
** Current wind speed in m/s (hover to see current wind gust speed)